TimeEDT,TemperatureF,Dew PointF,Humidity,Sea Level PressureIn,VisibilityMPH,Wind Direction,Wind SpeedMPH,Gust SpeedMPH,PrecipitationIn,Events,Conditions,WindDirDegrees,DateUTC
12:53 AM,36.0,34.0,93,30.08,10.0,Calm,Calm,-,N/A,,Clear,0,2013-10-21 04:53:00
1:53 AM,35.1,33.1,92,30.09,9.0,Calm,Calm,-,N/A,,Clear,0,2013-10-21 05:53:00
2:53 AM,33.1,32.0,96,30.10,7.0,Calm,Calm,-,N/A,,Clear,0,2013-10-21 06:53:00
3:53 AM,33.1,32.0,96,30.10,9.0,Calm,Calm,-,N/A,,Clear,0,2013-10-21 07:53:00
4:53 AM,33.1,32.0,96,30.12,8.0,Calm,Calm,-,N/A,,Clear,0,2013-10-21 08:53:00
5:53 AM,32.0,30.9,96,30.12,8.0,Calm,Calm,-,N/A,,Clear,0,2013-10-21 09:53:00
6:53 AM,32.0,30.9,96,30.13,8.0,Calm,Calm,-,N/A,,Clear,0,2013-10-21 10:53:00
7:53 AM,33.1,32.0,96,30.15,8.0,Calm,Calm,-,N/A,,Clear,0,2013-10-21 11:53:00
8:53 AM,37.9,37.9,100,30.16,9.0,Calm,Calm,-,N/A,,Clear,0,2013-10-21 12:53:00
9:53 AM,48.0,42.1,80,30.15,10.0,Calm,Calm,-,N/A,,Clear,0,2013-10-21 13:53:00
10:53 AM,55.0,41.0,59,30.13,10.0,SSW,4.6,-,N/A,,Clear,200,2013-10-21 14:53:00
11:53 AM,61.0,39.9,46,30.12,10.0,SW,4.6,-,N/A,,Clear,220,2013-10-21 15:53:00
12:53 PM,63.0,36.0,37,30.09,10.0,SW,9.2,-,N/A,,Clear,220,2013-10-21 16:53:00
1:53 PM,64.9,35.1,33,30.05,10.0,SW,8.1,-,N/A,,Clear,220,2013-10-21 17:53:00
2:53 PM,64.9,34.0,32,30.03,10.0,SW,8.1,16.1,N/A,,Clear,230,2013-10-21 18:53:00
3:53 PM,64.9,36.0,34,30.01,10.0,SW,10.4,16.1,N/A,,Clear,220,2013-10-21 19:53:00
4:53 PM,63.0,35.1,35,30.00,10.0,SSW,4.6,-,N/A,,Clear,210,2013-10-21 20:53:00
5:53 PM,61.0,37.0,41,30.01,10.0,SSW,4.6,-,N/A,,Clear,200,2013-10-21 21:53:00
6:53 PM,55.0,37.9,53,30.02,10.0,Calm,Calm,-,N/A,,Clear,0,2013-10-21 22:53:00
7:53 PM,48.9,39.0,69,30.02,10.0,Calm,Calm,-,N/A,,Clear,0,2013-10-21 23:53:00
8:53 PM,45.0,39.0,80,30.01,10.0,Calm,Calm,-,N/A,,Clear,0,2013-10-22 00:53:00
9:53 PM,43.0,37.9,82,30.01,10.0,Calm,Calm,-,N/A,,Clear,0,2013-10-22 01:53:00
10:53 PM,48.9,39.0,69,29.99,10.0,Calm,Calm,-,N/A,,Clear,0,2013-10-22 02:53:00
11:53 PM,43.0,37.9,82,29.98,10.0,Calm,Calm,-,N/A,,Clear,0,2013-10-22 03:53:00